Hourly Weather Luksor

Today, 7 May, Friday

Time Temperature Precipitation Wind Pressure Humidity
00:00 +35°C° 0 mm 2 mps 750 mmHg 13%
01:00 +35°C° 0 mm 2 mps 750 mmHg 13%
02:00 +34°C° 0 mm 2 mps 750 mmHg 14%
03:00 +32°C° 0 mm 2 mps 750 mmHg 14%
04:00 +32°C° 0 mm 2 mps 750 mmHg 15%
05:00 +31°C° 0 mm 2 mps 750 mmHg 16%
06:00 +34°C° 0 mm 2 mps 751 mmHg 14%
07:00 +36°C° 0 mm 2 mps 751 mmHg 13%
08:00 +38°C° 0 mm 2 mps 752 mmHg 11%
09:00 +40°C° 0 mm 2 mps 751 mmHg 10%
10:00 +41°C° 0 mm 2 mps 751 mmHg 9%
11:00 +43°C° 0 mm 2 mps 751 mmHg 7%
12:00 +45°C° 0 mm 3 mps 750 mmHg 7%
13:00 +46°C° 0 mm 3 mps 750 mmHg 6%
14:00 +48°C° 0 mm 4 mps 749 mmHg 6%
15:00 +48°C° 0 mm 4 mps 749 mmHg 6%
16:00 +47°C° 0 mm 5 mps 748 mmHg 6%
17:00 +47°C° 0 mm 5 mps 748 mmHg 6%
18:00 +45°C° 0 mm 5 mps 748 mmHg 7%
19:00 +43°C° 0 mm 5 mps 749 mmHg 8%
20:00 +41°C° 0 mm 4 mps 749 mmHg 9%
21:00 +40°C° 0 mm 4 mps 750 mmHg 10%
22:00 +38°C° 0 mm 3 mps 750 mmHg 11%
23:00 +36°C° 0 mm 3 mps 750 mmHg 12%

Tomorrow, 8 May, Saturday

Time Temperature Precipitation Wind Pressure Humidity
00:00 +36°C° 0 mm 3 mps 750 mmHg 13%
01:00 +35°C° 0 mm 3 mps 750 mmHg 14%
02:00 +34°C° 0 mm 2 mps 750 mmHg 15%
03:00 +32°C° 0 mm 2 mps 750 mmHg 16%
04:00 +32°C° 0 mm 2 mps 750 mmHg 17%
05:00 +31°C° 0 mm 2 mps 750 mmHg 18%
06:00 +34°C° 0 mm 2 mps 750 mmHg 17%
07:00 +36°C° 0 mm 2 mps 751 mmHg 15%
08:00 +38°C° 0 mm 2 mps 751 mmHg 14%
09:00 +40°C° 0 mm 3 mps 751 mmHg 12%
10:00 +43°C° 0 mm 4 mps 750 mmHg 9%
11:00 +46°C° 0 mm 5 mps 750 mmHg 7%
12:00 +47°C° 0 mm 5 mps 749 mmHg 6%
13:00 +48°C° 0 mm 5 mps 748 mmHg 5%
14:00 +49°C° 0 mm 5 mps 747 mmHg 4%
15:00 +48°C° 0 mm 6 mps 747 mmHg 4%
16:00 +48°C° 0 mm 6 mps 747 mmHg 3%
17:00 +49°C° 0 mm 7 mps 747 mmHg 3%
18:00 +45°C° 0 mm 6 mps 747 mmHg 4%
19:00 +42°C° 0 mm 5 mps 748 mmHg 5%
20:00 +38°C° 0 mm 4 mps 748 mmHg 6%
21:00 +37°C° 0 mm 3 mps 748 mmHg 6%
22:00 +36°C° 0 mm 2 mps 748 mmHg 7%
23:00 +34°C° 0 mm 1 mps 748 mmHg 8%

Day after tomorrow, 9 May, Sunday

Time Temperature Precipitation Wind Pressure Humidity
00:00 +33°C° 0 mm 1 mps 748 mmHg 8%
01:00 +33°C° 0 mm 1 mps 748 mmHg 8%
02:00 +32°C° 0 mm 1 mps 748 mmHg 8%
03:00 +32°C° 0 mm 1 mps 748 mmHg 9%
04:00 +32°C° 0 mm 2 mps 748 mmHg 9%
05:00 +31°C° 0 mm 2 mps 748 mmHg 9%
06:00 +35°C° 0 mm 3 mps 749 mmHg 8%
07:00 +37°C° 0 mm 3 mps 749 mmHg 7%
08:00 +40°C° 0 mm 4 mps 749 mmHg 6%
09:00 +42°C° 0 mm 5 mps 749 mmHg 5%
10:00 +45°C° 0 mm 5 mps 749 mmHg 5%
11:00 +47°C° 0 mm 6 mps 749 mmHg 4%
12:00 +47°C° 0 mm 6 mps 748 mmHg 4%
13:00 +48°C° 0 mm 6 mps 748 mmHg 4%
14:00 +48°C° 0 mm 6 mps 747 mmHg 3%
15:00 +48°C° 0 mm 5 mps 747 mmHg 4%
16:00 +48°C° 0 mm 5 mps 746 mmHg 4%
17:00 +47°C° 0 mm 4 mps 746 mmHg 4%
18:00 +44°C° 0 mm 4 mps 747 mmHg 5%
19:00 +42°C° 0 mm 4 mps 747 mmHg 6%
20:00 +39°C° 0 mm 3 mps 747 mmHg 6%
21:00 +38°C° 0 mm 3 mps 747 mmHg 7%
22:00 +37°C° 0 mm 2 mps 747 mmHg 7%
23:00 +36°C° 0 mm 2 mps 748 mmHg 8%

10 May, Monday

Time Temperature Precipitation Wind Pressure Humidity
00:00 +35°C° 0 mm 2 mps 748 mmHg 9%
01:00 +35°C° 0 mm 2 mps 747 mmHg 11%
02:00 +34°C° 0 mm 2 mps 747 mmHg 12%
03:00 +32°C° 0 mm 2 mps 747 mmHg 13%
04:00 +32°C° 0 mm 1 mps 747 mmHg 14%
05:00 +31°C° 0 mm 1 mps 747 mmHg 15%
06:00 +34°C° 0 mm 1 mps 747 mmHg 13%
07:00 +37°C° 0 mm 2 mps 748 mmHg 11%
08:00 +39°C° 0 mm 3 mps 748 mmHg 9%
09:00 +41°C° 0 mm 2 mps 748 mmHg 8%
10:00 +43°C° 0 mm 2 mps 748 mmHg 7%
11:00 +44°C° 0 mm 1 mps 747 mmHg 6%
12:00 +46°C° 0 mm 2 mps 747 mmHg 6%
13:00 +47°C° 0 mm 2 mps 746 mmHg 5%
14:00 +48°C° 0 mm 3 mps 746 mmHg 5%
15:00 +47°C° 0 mm 3 mps 745 mmHg 5%
16:00 +47°C° 0 mm 3 mps 745 mmHg 5%
17:00 +47°C° 0 mm 2 mps 745 mmHg 5%
18:00 +45°C° 0 mm 2 mps 745 mmHg 6%
19:00 +42°C° 0 mm 2 mps 745 mmHg 7%
20:00 +40°C° 0 mm 3 mps 745 mmHg 8%
21:00 +39°C° 0 mm 2 mps 746 mmHg 9%
22:00 +37°C° 0 mm 2 mps 746 mmHg 11%
23:00 +36°C° 0 mm 2 mps 746 mmHg 13%

11 May, Tuesday

Time Temperature Precipitation Wind Pressure Humidity
00:00 +35°C° 0 mm 2 mps 746 mmHg 15%
01:00 +35°C° 0 mm 2 mps 746 mmHg 17%
02:00 +34°C° 0 mm 2 mps 745 mmHg 19%
03:00 +32°C° 0 mm 2 mps 746 mmHg 24%
04:00 +31°C° 0 mm 3 mps 746 mmHg 28%
05:00 +30°C° 0 mm 3 mps 746 mmHg 32%
06:00 +32°C° 0 mm 4 mps 747 mmHg 31%
07:00 +33°C° 0 mm 4 mps 747 mmHg 30%
08:00 +34°C° 0 mm 5 mps 747 mmHg 29%
09:00 +35°C° 0 mm 5 mps 747 mmHg 26%
10:00 +38°C° 0 mm 6 mps 747 mmHg 22%
11:00 +40°C° 0 mm 6 mps 747 mmHg 19%
12:00 +41°C° 0 mm 7 mps 747 mmHg 17%
13:00 +43°C° 0 mm 7 mps 746 mmHg 14%
14:00 +43°C° 0 mm 7 mps 746 mmHg 12%
15:00 +43°C° 0 mm 7 mps 746 mmHg 11%
16:00 +41°C° 0 mm 7 mps 746 mmHg 10%
17:00 +41°C° 0 mm 7 mps 746 mmHg 9%
18:00 +39°C° 0 mm 7 mps 746 mmHg 11%
19:00 +36°C° 0 mm 6 mps 746 mmHg 13%
20:00 +34°C° 0 mm 6 mps 747 mmHg 15%
21:00 +34°C° 0 mm 5 mps 747 mmHg 17%
22:00 +33°C° 0 mm 5 mps 747 mmHg 19%
23:00 +32°C° 0 mm 4 mps 747 mmHg 20%

12 May, Wednesday

Time Temperature Precipitation Wind Pressure Humidity
00:00 +30°C° 0 mm 4 mps 747 mmHg 22%
01:00 +29°C° 0 mm 3 mps 747 mmHg 24%
02:00 +28°C° 0 mm 3 mps 747 mmHg 26%
03:00 +28°C° 0 mm 3 mps 747 mmHg 28%
04:00 +27°C° 0 mm 2 mps 747 mmHg 31%
05:00 +26°C° 0 mm 2 mps 747 mmHg 33%
06:00 +28°C° 0 mm 2 mps 747 mmHg 31%
07:00 +30°C° 0 mm 3 mps 748 mmHg 29%
08:00 +31°C° 0 mm 3 mps 748 mmHg 27%
09:00 +34°C° 0 mm 4 mps 748 mmHg 23%
10:00 +36°C° 0 mm 4 mps 748 mmHg 20%
11:00 +38°C° 0 mm 4 mps 747 mmHg 16%
12:00 +40°C° 0 mm 4 mps 747 mmHg 14%
13:00 +41°C° 0 mm 5 mps 746 mmHg 12%
14:00 +42°C° 0 mm 5 mps 746 mmHg 11%
15:00 +42°C° 0 mm 6 mps 746 mmHg 10%
16:00 +41°C° 0 mm 6 mps 746 mmHg 10%
17:00 +41°C° 0 mm 7 mps 745 mmHg 9%
18:00 +39°C° 0 mm 7 mps 746 mmHg 10%
19:00 +36°C° 0 mm 6 mps 746 mmHg 10%
20:00 +35°C° 0 mm 5 mps 747 mmHg 10%
21:00 +34°C° 0 mm 4 mps 747 mmHg 11%
22:00 +31°C° 0 mm 3 mps 748 mmHg 12%
23:00 +30°C° 0 mm 3 mps 748 mmHg 13%
Show more

We Need Your Consent

Meteoprog and our Service Providers may store and access personal data such as cookies, device identifiers or other similar technologies on your device and process such data to personalise content and ads, as well as provide social media features and to analyse the traffic.

  • Store and/or access information on your device

    Cookies, device identifiers or other information can be stored or accessed on your device for the purposes indicated above.

  • Personalised ads and content, ad and content measurement, audience insights, and products development

    Ads and content can be personalised based on a profile. More data can be added to better personalise ads and content. Ad and content performance can be measured. Insights about the audience who saw the ads and content can be derived. Such data can be used to develop or improve user’s experience, systems and software.

By clicking ‘I Agree’ you will allow the use of indicated cookies, device identifiers, web beacons or other similar technologies. Your settings can be changed in the browser on your device.

For certain purposes, legitimate interests may be relied on, rather than consent. You can read more about this in our Privacy and Cookie Policy.